Location: Famechon
(49.7599°N, 2.0615°E)
Time: 19:32:54
(UTC+00:00)

Cosmos 2058 Rocket - Pass Details

Date: 03 February 2023
Orbit: 610 x 637 km, 82.5° (Epoch: 25 March)

Event Time Altitude Azimuth Distance (km) Brightness Sun altitude
Rises 17:59:36 0° 356° (N) 2,898 6.4 -11.5°
Reaches altitude 10° 18:01:59 10° 6° (N) 1,991 5.5 -11.9°
Maximum altitude 18:06:03 35° 72° (ENE) 1,007 3.6 -12.5°
Drops below altitude 10° 18:10:06 10° 139° (SE) 1,992 5.4 -13.2°
Sets 18:12:29 0° 148° (SSE) 2,898 6.3 -13.6°
